Location: Pedholt
(56.0260°N, 10.2097°E)
Time: 06:24:00
(UTC+00:00)

SL-16 R/B - Pass Details

Date: 14 July 2020
Orbit: 985 x 1007 km, 99.5° (Epoch: 14 August)

Event Time Altitude Azimuth Distance (km) Brightness Sun altitude
Exits shadow 00:11:55 - 149° (SSE) 3,241 4.8 -11.7°
Reaches altitude 10° 00:13:09 10° 148° (SSE) 2,773 4.5 -11.7°
Maximum altitude 00:19:21 70° 66° (ENE) 1,071 2.9 -11.5°
Drops below altitude 10° 00:25:36 10° 345° (NNW) 2,798 5.9 -11.3°
Sets 00:28:06 0° 343° (NNW) 3,752 6.6 -11.2°
